Flag Weather past 2 weeks in Königs Wusterhausen, Brandenburg, Germany

Now
34 °F

Passing clouds.


Feels Like: 23 °F
Forecast: 26 / 31 °F
Wind: 16 mph from East

Location: Berlin-Schoenefeld

Current Time: Nov 28, 2014 at 7:22:02 AM

Latest Report: Nov 28, 2014 at 6:50 AM


Visibility: N/A

Pressure: 30.09 "Hg

Humidity: 81%

Dew point: 28 °F

Location of Königs WusterhausenLocation

Historic Weather in Königs Wusterhausen — Graph

°F

Königs Wusterhausen temperature yesterday

Maximum temperature yesterday: 39 °F (at 12:50 PM)
Minimum temperature yesterday: 32 °F (at 4:20 AM)
Average temperature yesterday: 35 °F

Past Weeks' High & Low Weather Summary

 TemperatureHumidityPressure
High52 °F (Nov 13, 12:20 PM)100% (Nov 13, 6:20 AM)30.36 "Hg (Nov 13, 6:20 AM)
Low32 °F (Nov 27, 4:20 AM)71% (Nov 22, 9:50 AM)29.59 "Hg (Nov 16, 6:50 AM)
Average43 °F92%30.07 "Hg
* Reported Nov 13 6:20 AM — Nov 28 6:20 AM, Königs Wusterhausen, Weather by CustomWeather, © 2014

Note: Actual official high and low records may vary slightly from our data, if they occured in-between our weather recording intervals... More about our weather records

Advertising

Königs Wusterhausen weather history for previous 24 hours

 ConditionsComfort  
Time TempWeatherWind HumidityBarometerVisibility
6:20 AM
Nov 28
34 °FPassing clouds.16 mph81%30.09 "HgN/A
5:50 AM34 °FPassing clouds.16 mph81%30.09 "HgN/A
5:20 AM34 °FPassing clouds.17 mph81%30.09 "HgN/A
4:50 AM32 °FPassing clouds.17 mph87%30.07 "HgN/A
4:20 AM32 °FPassing clouds.18 mph87%30.07 "HgN/A
3:50 AM32 °FPassing clouds.17 mph93%30.07 "HgN/A
3:20 AM32 °FPassing clouds.16 mph93%30.07 "HgN/A
2:50 AM32 °FPassing clouds.15 mph93%30.07 "HgN/A
2:20 AM32 °FPassing clouds.16 mph93%30.07 "HgN/A
1:50 AM32 °FPassing clouds.16 mph93%30.07 "HgN/A
1:20 AM34 °FPassing clouds.15 mph87%30.07 "HgN/A
12:50 AM34 °FPassing clouds.16 mph87%30.07 "HgN/A
12:20 AM36 °FPassing clouds.15 mph87%30.07 "HgN/A
11:50 PM
Nov 27
36 °FPassing clouds.14 mph87%30.04 "HgN/A
11:20 PM36 °FPassing clouds.16 mph87%30.04 "HgN/A
10:50 PM36 °FPassing clouds.16 mph87%30.04 "HgN/A
10:20 PM37 °FPassing clouds.15 mph81%30.04 "HgN/A
9:50 PM37 °FPassing clouds.14 mph81%30.04 "HgN/A
9:20 PM37 °FPassing clouds.15 mph81%30.04 "HgN/A
8:50 PM37 °FPassing clouds.14 mph87%30.04 "HgN/A
8:20 PM37 °FPartly cloudy.14 mph87%30.04 "HgN/A
7:50 PM37 °FPassing clouds.15 mph87%30.04 "HgN/A
7:20 PM37 °FPassing clouds.15 mph87%30.04 "Hg6 mi
6:50 PM37 °FPassing clouds.17 mph87%30.04 "Hg6 mi
6:20 PM36 °FPartly cloudy.15 mph93%30.01 "Hg6 mi
5:50 PM36 °FPassing clouds.16 mph93%30.01 "Hg6 mi
5:20 PM36 °FPassing clouds.15 mph93%30.01 "Hg6 mi
4:50 PM36 °FPassing clouds.14 mph93%30.01 "Hg6 mi
4:20 PM36 °FClear.12 mph87%30.01 "Hg4 mi
3:50 PM36 °FScattered clouds.10 mph87%30.01 "Hg4 mi
3:20 PM37 °FPassing clouds.14 mph81%30.01 "Hg5 mi
2:50 PM37 °FScattered clouds.13 mph87%30.01 "Hg5 mi
2:20 PM39 °FPassing clouds.14 mph75%30.01 "Hg6 mi
1:50 PM39 °FPassing clouds.15 mph81%30.01 "HgN/A
1:20 PM39 °FScattered clouds.15 mph81%30.01 "HgN/A
12:50 PM39 °FScattered clouds.14 mph81%30.01 "HgN/A
12:20 PM37 °FSunny.13 mph81%30.04 "Hg10 mi
11:50 AM37 °FSunny.16 mph87%30.04 "Hg10 mi
11:20 AM36 °FSunny.14 mph93%30.04 "Hg10 mi
10:50 AM36 °FClear.15 mph87%30.04 "Hg6 mi
10:20 AM34 °FClear.15 mph93%30.04 "Hg4 mi
9:20 AM32 °FClear.14 mph100%30.07 "Hg4 mi
8:50 AM32 °FIce fog.13 mph100%30.07 "Hg3 mi
8:20 AM32 °FIce fog.13 mph100%30.07 "Hg3 mi
7:50 AM32 °FIce fog.12 mph100%30.07 "Hg2 mi
7:20 AM32 °FIce fog.12 mph100%30.07 "Hg2 mi
Weather by CustomWeather, © 2014

See weather overviewHow to use our weather pages